www.pogodaiklimat.ru

Погода и климат >> Архив погоды >> Антарктида >> Casey Snyder Rocks


ПОГОДА в Casey Snyder Rocks

  • Прогноз погоды в Casey Snyder Rocks
  • Монитор погоды в Casey Snyder Rocks
  • Климат города

АРХИВ ПОГОДЫ в Casey Snyder Rocks

Время (UTC), дата Ветер
(напр.,м/с)
 
Видим.   Явления Облачность Т
(С)
Тd
(С)
f
(%)
Тe
(С)
Тes
(С)
Комфортность P
(гПа)
Po
(гПа)
Тmin
(С)
Tmax
(С)
R
(мм)
R24
(мм)
S
(см)
02 16.07 ЮВ 5
{19}
н/о н/о -13.9 982.4
01 16.07 В 5
{19}
н/о н/о -13.2 983.5
03 16.07 Ю 11
{18}
н/о н/о -13.9 982.4
05 16.07 0 н/о 981.2
07 16.07 0
{15}
н/о н/о -13.4 981.2
08 16.07 СВ 4
{16}
н/о н/о -13.6 978.8
10 16.07 СВ 7
{19}
н/о н/о -12.3 977.7
11 16.07 В 3
{22}
н/о н/о -13.9 976.5
12 16.07 СВ 5
{18}
н/о н/о -13.2 976.5
13 16.07 ЮВ 8
{24}
н/о н/о -14.4 972.9
14 16.07 ЮВ 8
{24}
н/о н/о -14.5 972.9
15 16.07 Ю 9
{22}
н/о н/о -14.9 971.8
16 16.07 Ю 21
{34}
н/о н/о -15.9 967.1
17 16.07 Ю 20
{33}
н/о н/о -15.6 967.1
19 16.07 ЮВ 10
{22}
н/о н/о -11.4 965.9
20 16.07 В 7
{20}
н/о н/о -11.2 965.9
23 16.07 Ю 10
{16}
н/о н/о -10.0 965.9
00 17.07 СВ 5
{16}
н/о н/о -9.7 965.9
01 17.07 С 8
{14}
н/о н/о -9.6 967.1
02 17.07 С 10
{13}
н/о н/о -9.7 969.4
03 17.07 С 9
{11}
н/о н/о -9.9 969.4
04 17.07 С 9
{12}
н/о н/о -9.8 970.6
07 17.07 С 8
{10}
н/о н/о -9.1 972.9
08 17.07 С 7
{8}
н/о н/о -8.8 974.1
09 17.07 С 5
{7}
н/о н/о -9.4 975.3
10 17.07 С 4
{5}
н/о н/о -9.3 975.3
11 17.07 С 6
{8}
н/о н/о -8.4 976.5
12 17.07 С 7
{8}
н/о н/о -8.2 976.5
13 17.07 С 6
{8}
н/о н/о -7.8 977.7
14 17.07 0
{7}
н/о н/о -7.7
15 17.07 С 7
{8}
н/о н/о -7.7 977.7
16 17.07 С 2
{9}
н/о н/о -6.7 977.7
17 17.07 0 н/о
18 17.07 0 н/о н/о -5.8 977.7
20 17.07 Ю 6
{7}
н/о н/о -6.0 978.8
21 17.07 С 4
{9}
н/о н/о -7.4 978.8
22 17.07 С 7
{9}
н/о н/о -7.8 978.8
23 17.07 0 н/о 978.8
00 18.07 С 7
{11}
н/о н/о -6.9 980.0
02 18.07 СВ 6
{11}
н/о н/о -8.5 981.2
01 18.07 В 2
{11}
н/о н/о -6.7 980.0
04 18.07 В 4
{8}
н/о н/о -8.0 982.4
06 18.07 СВ 4
{9}
н/о н/о -6.9 982.4
07 18.07 ЮВ 5
{7}
н/о н/о -6.9 983.5
09 18.07 ЮВ 5
{5}
н/о н/о -7.0 983.5
10 18.07 Ю 5
{5}
н/о н/о -6.7 984.7
12 18.07 Ю 5
{6}
н/о н/о -6.8 984.7
13 18.07 ЮВ 5
{5}
н/о н/о -6.7 984.7
14 18.07 ЮВ 6
{7}
н/о н/о -6.3 984.7
15 18.07 ЮВ 6
{7}
н/о н/о -6.6 984.7
16 18.07 В 6
{7}
н/о н/о -6.7 984.7
17 18.07 ЮВ 4
{6}
н/о н/о -7.1 984.7
18 18.07 ЮВ 4
{6}
н/о н/о -7.5 983.5
20 18.07 ЮВ 5
{6}
н/о н/о -7.6 983.5
21 18.07 ЮВ 5
{6}
н/о н/о -7.6 983.5
22 18.07 В 4
{7}
н/о н/о -7.7 982.4
00 19.07 СВ 7
{12}
н/о н/о -7.9 981.2
02 19.07 С 6
{10}
н/о н/о -8.3 981.2
04 19.07 СВ 5
{8}
н/о н/о -8.5 981.2
07 19.07 0 н/о 980.0
08 19.07 В 6
{10}
н/о н/о -9.4 980.0
09 19.07 В 6
{8}
н/о н/о -9.3 978.8
10 19.07 В 7
{9}
н/о н/о -9.4
11 19.07 С 7
{11}
н/о н/о -9.6 978.8
12 19.07 С 9
{11}
н/о н/о -9.9 977.7
13 19.07 С 8 н/о н/о -10.6 977.7
14 19.07 0
{12}
н/о 976.5
15 19.07 0
{12}
н/о н/о -10.5 977.7
16 19.07 0
{14}
н/о
17 19.07 0 н/о 975.3
19 19.07 СВ 5
{14}
н/о н/о -9.9 976.5
20 19.07 СВ 7
{11}
н/о н/о -10.6 975.3
21 19.07 Ю 0 н/о н/о 981.2
22 19.07 С 11
{14}
н/о н/о -10.5 975.3
23 19.07 С 9
{12}
н/о н/о -12.3 975.3
00 20.07 С 9
{11}
н/о н/о -12.6 975.3
01 20.07 0
{13}
н/о 975.3
02 20.07 С 10
{16}
н/о н/о -12.1 975.3
03 20.07 С 8
{14}
н/о н/о -12.2 975.3
06 20.07 ЮВ 8
{19}
н/о н/о -10.9 974.1
08 20.07 С 10
{19}
н/о н/о -10.1 972.9
11 20.07 С 12
{20}
н/о н/о -11.0 972.9
10 20.07 С 13
{21}
н/о н/о -10.4 972.9
12 20.07 С 14
{21}
н/о н/о -11.0 972.9
13 20.07 СВ 16
{25}
н/о н/о -11.5 971.8
14 20.07 0
{26}
н/о н/о -11.6 972.9
15 20.07 С 16
{26}
н/о н/о -11.3 971.8
17 20.07 0
{24}
н/о н/о -11.5 970.6
16 20.07 С 14
{24}
н/о н/о -11.6 971.8
18 20.07 0
{24}
н/о 970.6
19 20.07 С 17
{27}
н/о н/о -10.9 968.2
20 20.07 0
{29}
н/о 969.4
21 20.07 СВ 19
{31}
н/о н/о -10.2 968.2
23 20.07 СВ 20
{33}
н/о н/о -9.1 968.2
22 20.07 С 22
{31}
н/о н/о -9.1 967.1
01 21.07 СВ 22
{31}
н/о н/о -8.0 969.4
02 21.07 СВ 19
{31}
н/о н/о -8.1 968.2
03 21.07 В 16
{35}
н/о н/о -8.4 967.1
04 21.07 СВ 15
{39}
н/о н/о -7.8 968.2
06 21.07 СВ 18
{37}
н/о н/о -8.0 971.8
08 21.07 0
{38}
н/о н/о -7.6 969.4
09 21.07 СВ 21
{36}
н/о н/о -7.7 970.6
10 21.07 СВ 20
{36}
н/о н/о -8.0 972.9
11 21.07 СВ 20
{34}
н/о н/о -7.9 974.1
12 21.07 СВ 15
{33}
н/о н/о -8.1 974.1
14 21.07 СВ 17
{32}
н/о н/о -9.9 974.1
13 21.07 0
{34}
н/о
15 21.07 В 14
{32}
н/о н/о -9.5 976.5
16 21.07 СВ 21
{34}
н/о н/о -9.5 975.3
17 21.07 СВ 23
{34}
н/о н/о -9.4 975.3
18 21.07 СВ 14
{30}
н/о н/о -9.8 977.7
20 21.07 СВ 10
{26}
н/о н/о -10.1 978.8
21 21.07 С 20
{29}
н/о н/о -10.7 978.8
22 21.07 С 18
{27}
н/о н/о -10.5 981.2
23 21.07 С 16
{25}
н/о н/о -10.8 980.0
00 22.07 С 13
{20}
н/о н/о -10.0 981.2
01 22.07 С 14
{19}
н/о н/о -9.8 981.2
02 22.07 СВ 15
{27}
н/о н/о -10.0 980.0
03 22.07 С 19
{27}
н/о н/о -10.1 978.8
04 22.07 С 16
{26}
н/о н/о -11.0 977.7
05 22.07 С 20
{27}
н/о н/о -10.0 977.7
08 22.07 0 н/о н/о -10.0 977.7
09 22.07 С 14
{22}
н/о н/о -10.6 976.5
11 22.07 С 6
{19}
н/о н/о -9.7 974.1
10 22.07 С 8
{19}
н/о н/о -9.9 975.3
12 22.07 С 12
{21}
н/о н/о -8.9 971.8
13 22.07 С 14
{22}
н/о н/о -8.0 970.6
14 22.07 0
{28}
н/о 967.1
15 22.07 СВ 13
{30}
н/о н/о -7.4 967.1
16 22.07 В 9
{29}
н/о н/о -6.7 964.7
18 22.07 С 20
{28}
н/о н/о -5.1 964.7
21 22.07 С 20
{31}
н/о н/о -5.2
22 22.07 С 18
{34}
н/о н/о -5.3 967.1
23 22.07 СВ 19
{31}
н/о н/о -5.3 968.2
00 23.07 0
{29}
н/о н/о -5.2 969.4

 

Местоположение метеостанции Casey Snyder Rocks (Антарктида): широта -66.55 долгота 107.75 высота над уровнем моря 42 м.

В архиве по умолчанию представлена погода в Casey Snyder Rocks за последнюю неделю. Архивные данные за месяц целиком и за предыдущие месяцы, начиная с января 2011 года, Вы можете получить, выбрав интересующий диапазон дат из раскрывающегося списка и нажав кнопку "Ввод!".


*Определитесь, кто Вы:
робот инопланетянин человек

Внимание! Время в таблицах - всемирное. Для получения местного времени необходимо прибавить поправку, которая в Casey Snyder Rocks равна 0 ч.

Смотрите также архив погоды в соседних городах и на ближайших метеорологических станциях:

Погода в Casey (Антарктида) (126 км)
Погода в Casey Skiway South (Антарктида) (138 км)
Погода в Casey (Peterson air) (Антарктида) (152 км)
Погода в Wilkins Runway East (Антарктида) (167 км)
Погода в Oazic Bangera (Антарктида) (313 км)
Погода в Mirnyj (Антарктида) (650 км)
Погода в Dome C II (Антарктида) (1103 км)
Погода в Vostok (Антарктида) (1326 км)

Пояснения к столбцам:

Ветер - указаны скорость ветра в м/с - средняя за 10 мин, порывы в срок и между сроками (в фигурных скобках) и направление, откуда дует ветер: С - северный, СВ - северо-восточный, В - восточный, ЮВ - юго-восточный, Ю - южный, ЮЗ - юго-западный, З - западный, СЗ - северо-западный.
Видимость - горизонтальная дальность видимости в метрах или километрах. При видимости от 1 до 10 км при отсутствии осадков обычно наблюдается дымка, при ухудшении видимости до 1 км и менее - туман. В сухую погоду видимость может ухудшаться дымом, пылью или мглою.
Явления - указаны атмосферные явления, наблюдавшиеся в срок или в последний час перед сроком; фигурными скобками обозначены явления, наблюдавшиеся между сроками (за 1-3 часа до срока); квадратными скобками обозначены град или гололедные отложения с указанием их диаметра в мм.
Облачность - указаны через наклонную черту общая и нижняя облачность в баллах и высота нижней границы облаков в метрах; квадратными скобками обозначены формы облаков: Ci - перистые, Cs - перисто-слоистые, Cc - перисто-кучевые, Ac - высококучевые, As - высокослоистые, Sc - слоисто-кучевые, Ns - слоисто-дождевые, Cu - кучевые, Cb - кучево-дождевые. Подробнее классификацию облаков см. в Атласе облаков (PDF).
T - Температура воздуха - температура, измеренная на высоте 2 м над землей.
Td - Температура точки росы - температура, при понижении до которой содержащийся в воздухе водяной пар достигнет насыщения.
f - Относительная влажность воздуха - влажноcть воздуха, измеренная на высоте 2 м над землей.
Te - Эффективная температура - температура, которую ощущает одетый по сезону человек в тени. Характеристика душности погоды. При расчете учитывается влияние влажности воздуха и скорости ветра на теплоощущения человека.
Tes - Эффективная температура на солнце - температура, которую ощущает человек, с поправкой на солнечный нагрев. Характеристика знойности погоды. Зависит от высоты солнца над горизонтом, облачности и скорости ветра. Ночью, в пасмурную погоду, а также при ветре 12 м/с и более поправка равна нулю.
P - Атмосферное давление - приведенное к уровню моря атмосферное давление.
Po - Атмосферное давление - измеренное на уровне метеостанции атмосферное давление.
Tmin - Минимальная температура - минимум температуры воздуха на высоте 2 м над землей.
Tmax - Максимальная температура - максимум температуры воздуха на высоте 2 м над землей.
R - Количество осадков - Количество выпавших осадков за период времени, мм. При наведении курсора мыши на число - период времени, за который выпало указанное количество осадков.
R24 - Количество осадков - Количество выпавших осадков за 24 часа, мм.
S - Снежный покров - Высота снежного покрова, см. При наведении курсора мыши на число - состояние снежного покрова и степень покрытия местности в баллах.